Find Starlink 11575

NORAD ID: 63308 Int'l Des: 2025-057 Owner: SPXS Country: US Constellation: starlink operational
又名: STARLINK-11575 [DTC] celestrak
LEOCIRCULAR

当前视图

正在加载3D地球...

About Starlink 11575

Starlink 11575 (NORAD 63308) is a starlink constellation satellite (v2 mini d2c) launched Mar 18, 2025 by SPXS of US. It operates in LEO, CIRCULAR orbit with a mass of 960.00 kg.

即将过境

Passes for default location (London). Set your location on the main map for personalized predictions.

高度历史

Loading altitude history...

两行轨道根数

1 63308U 25057B 26265.07611984 .00148660 00000-0 11380-2 0 9996
2 63308 42.9975 160.8199 0002722 250.8800 109.1773 15.70909781 88065
Epoch: Sep 22, 2026 • Age: 25 hours

当前状态

高度 357.2 km
远地点 / 近地点 N/A
速度 7.70 km/s
星下点 28.12°N, 151.08°E
发射日期 Mar 18, 2025
运行时间 1.5 years
类型 internet

技术详情

分类 Payload
质量 960.00 kg
干质量 910.00 kg
长度 0.30 m
跨度 29.00 m
形状 ? Box + pan
制造商 SPXS
平台类型 Starlink V2MD
阶段状态 In Orbit
所有者/国家 SPXS/US

Most Searched